Date String (YYYY-MM-DD hh:mm:ss) UTC,Instrument flags,Ambient pressure (hPa),Sample flow (lpm),Bypass flow (lpm),Sample temperature (°C),Ambient temperature (°C),ASC tube jacket temperature (°C),LED temperature (°C),Box temperature (°C),Sample RH (%),Span deviation,Mass concentration (μg/m³),Mass concentration (μg/m³),Mass concentration (μg/m³)
DateTimeUTC,F1_M11,P_M11,Q1_M11,Q2_M11,T1_M11,T2_M11,T3_M11,T4_M11,T5_M11,U1_M11,ZSPAN_M11,X0_M11,X2_M11,X1_M11
2022-03-19 13:00:00,,0827.0,5.01,0.00,22.8,21.9,00.0,31.7,24.6,08.5,0000.0,0005.45,0003.09,0002.02
2022-03-19 13:01:00,,0827.0,4.99,0.00,22.8,21.9,00.0,31.7,24.6,08.4,0000.0,0005.61,0003.11,0002.01
2022-03-19 13:02:00,,0827.0,5.02,0.00,22.8,21.9,00.0,31.7,24.6,08.4,0000.0,0005.61,0003.09,0002.01
2022-03-19 13:03:00,,0827.0,5.00,0.00,22.8,21.9,00.0,31.7,24.5,08.3,0000.0,0005.94,0003.09,0002.02
2022-03-19 13:04:00,,0827.0,5.00,0.00,22.7,21.8,00.0,31.7,24.5,08.3,0000.0,0005.77,0003.04,0002.01
2022-03-19 13:05:00,,0826.9,5.00,0.00,22.7,21.8,00.0,31.7,24.5,08.3,0000.0,0005.59,0002.97,0001.99
2022-03-19 13:06:00,,0826.9,5.00,0.00,22.7,21.8,00.0,31.7,24.5,08.3,0000.0,0005.79,0003.02,0001.98
2022-03-19 13:07:00,,0826.9,4.99,0.00,22.7,21.8,00.0,31.7,24.5,08.3,0000.0,0005.77,0002.99,0001.96
2022-03-19 13:08:00,,0826.9,5.00,0.00,22.7,21.8,00.0,31.7,24.5,08.4,0000.0,0005.84,0003.01,0001.96
2022-03-19 13:09:00,,0827.0,4.99,0.00,22.7,21.8,00.0,31.7,24.5,08.4,0000.0,0005.91,0003.07,0001.97
2022-03-19 13:10:00,,0826.9,5.00,0.00,22.7,21.8,00.0,31.7,24.5,08.4,0000.0,0005.99,0003.12,0001.99
2022-03-19 13:11:00,,0827.0,5.01,0.00,22.7,21.8,00.0,31.7,24.5,08.4,0000.0,0006.21,0003.15,0002.00
2022-03-19 13:12:00,,0826.9,5.01,0.00,22.7,21.8,00.0,31.7,24.5,08.4,0000.0,0006.16,0003.17,0002.03
2022-03-19 13:13:00,,0826.9,4.99,0.00,22.7,21.8,00.0,31.7,24.5,08.4,0000.0,0006.05,0003.15,0002.04
2022-03-19 13:14:00,,0827.0,4.99,0.00,22.7,21.8,00.0,31.7,24.5,08.4,0000.0,0005.61,0003.16,0002.06
2022-03-19 13:15:00,,0827.0,5.00,0.00,22.7,21.8,00.0,31.7,24.5,08.4,0000.0,0005.73,0003.19,0002.07
2022-03-19 13:16:00,,0827.0,5.00,0.00,22.7,21.8,00.0,31.7,24.5,08.4,0000.0,0005.96,0003.25,0002.10
2022-03-19 13:17:00,,0827.0,5.00,0.00,22.7,21.8,00.0,31.7,24.5,08.4,0000.0,0005.99,0003.27,0002.11
2022-03-19 13:18:00,,0827.0,5.01,0.00,22.7,21.8,00.0,31.7,24.5,08.4,0000.0,0005.91,0003.28,0002.13
2022-03-19 13:19:00,,0827.0,5.00,0.00,22.7,21.8,00.0,31.7,24.5,08.4,0000.0,0006.09,0003.31,0002.15
2022-03-19 13:20:00,,0827.1,5.00,0.00,22.7,21.8,00.0,31.6,24.5,08.4,0000.0,0006.17,0003.33,0002.15
2022-03-19 13:21:00,,0827.1,5.00,0.00,22.7,21.8,00.0,31.6,24.5,08.4,0000.0,0007.20,0003.32,0002.16
2022-03-19 13:22:00,,0827.1,5.00,0.00,22.7,21.8,00.0,31.6,24.5,08.4,0000.0,0007.34,0003.29,0002.16
2022-03-19 13:23:00,,0827.1,5.00,0.00,22.7,21.8,00.0,31.6,24.5,08.4,0000.0,0007.73,0003.29,0002.16
2022-03-19 13:24:00,,0827.1,4.99,0.00,22.7,21.7,00.0,31.6,24.4,08.4,0000.0,0007.87,0003.32,0002.16
2022-03-19 13:25:00,,0827.1,5.00,0.00,22.7,21.7,00.0,31.6,24.4,08.5,0000.0,0007.87,0003.31,0002.15
2022-03-19 13:26:00,,0827.1,4.99,0.00,22.6,21.7,00.0,31.6,24.4,08.5,0000.0,0007.96,0003.33,0002.15
2022-03-19 13:27:00,,0827.1,5.01,0.00,22.6,21.7,00.0,31.6,24.4,08.5,0000.0,0007.84,0003.28,0002.14
2022-03-19 13:28:00,,0827.1,5.01,0.00,22.6,21.7,00.0,31.6,24.4,08.5,0000.0,0008.18,0003.23,0002.12
2022-03-19 13:29:00,,0827.1,5.00,0.00,22.6,21.7,00.0,31.6,24.4,08.4,0000.0,0008.26,0003.23,0002.11
2022-03-19 13:30:00,,0827.1,5.00,0.00,22.6,21.7,00.0,31.6,24.4,08.4,0000.0,0008.59,0003.19,0002.10
2022-03-19 13:31:00,,0827.0,5.00,0.00,22.6,21.7,00.0,31.6,24.4,08.4,0000.0,0008.59,0003.19,0002.11
2022-03-19 13:32:00,,0827.0,5.00,0.00,22.6,21.7,00.0,31.6,24.4,08.4,0000.0,0008.05,0003.19,0002.10
2022-03-19 13:33:00,,0827.0,4.99,0.00,22.6,21.7,00.0,31.6,24.4,08.4,0000.0,0007.91,0003.23,0002.09
2022-03-19 13:34:00,,0827.0,5.00,0.00,22.6,21.7,00.0,31.6,24.4,08.4,0000.0,0007.59,0003.22,0002.09
2022-03-19 13:35:00,,0827.0,5.00,0.00,22.6,21.7,00.0,31.6,24.4,08.4,0000.0,0007.39,0003.19,0002.09
2022-03-19 13:36:00,,0827.0,5.00,0.00,22.6,21.7,00.0,31.6,24.4,08.4,0000.0,0007.38,0003.20,0002.08
2022-03-19 13:37:00,,0827.1,4.99,0.00,22.6,21.7,00.0,31.6,24.4,08.4,0000.0,0007.70,0003.15,0002.08
2022-03-19 13:38:00,,0827.1,5.00,0.00,22.6,21.7,00.0,31.6,24.4,08.5,0000.0,0007.95,0003.21,0002.10
2022-03-19 13:39:00,,0827.1,5.00,0.00,22.6,21.7,00.0,31.6,24.4,08.5,0000.0,0007.73,0003.25,0002.10
2022-03-19 13:40:00,,0827.2,5.00,0.00,22.6,21.7,00.0,31.6,24.4,08.5,0000.0,0007.72,0003.27,0002.10
2022-03-19 13:41:00,,0827.1,5.00,0.00,22.6,21.7,00.0,31.6,24.4,08.6,0000.0,0007.26,0003.28,0002.10
2022-03-19 13:42:00,,0827.1,5.00,0.00,22.6,21.7,00.0,31.6,24.4,08.6,0000.0,0007.50,0003.26,0002.09
2022-03-19 13:43:00,,0827.1,5.00,0.00,22.6,21.7,00.0,31.6,24.4,08.5,0000.0,0008.05,0003.27,0002.07
2022-03-19 13:44:00,,0827.1,5.00,0.00,22.6,21.7,00.0,31.6,24.4,08.6,0000.0,0008.56,0003.26,0002.07
2022-03-19 13:45:00,,0827.2,5.00,0.00,22.6,21.7,00.0,31.6,24.4,08.7,0000.0,0008.66,0003.30,0002.08
2022-03-19 13:46:00,,0827.2,5.02,0.00,22.6,21.7,00.0,31.6,24.3,08.9,0000.0,0008.57,0003.28,0002.07
2022-03-19 13:47:00,,0827.2,4.99,0.00,22.5,21.7,00.0,31.6,24.3,09.0,0000.0,0008.55,0003.27,0002.08
2022-03-19 13:48:00,,0827.2,5.00,0.00,22.5,21.6,00.0,31.5,24.2,08.8,0000.0,0008.41,0003.28,0002.07
2022-03-19 13:49:00,,0827.2,5.00,0.00,22.5,21.6,00.0,31.5,24.3,08.7,0000.0,0008.24,0003.23,0002.04
2022-03-19 13:50:00,,0827.2,4.99,0.00,22.5,21.6,00.0,31.5,24.3,08.8,0000.0,0008.16,0003.23,0002.06
2022-03-19 13:51:00,,0827.4,5.00,0.00,22.5,21.6,00.0,31.5,24.3,08.8,0000.0,0008.14,0003.24,0002.06
2022-03-19 13:52:00,,0827.7,5.01,0.00,22.5,21.6,00.0,31.5,24.3,08.7,0000.0,0008.32,0003.27,0002.06
2022-03-19 13:53:00,,0827.5,5.01,0.00,22.6,21.6,00.0,31.5,24.3,08.6,0000.0,0008.21,0003.31,0002.07
2022-03-19 13:54:00,,0827.3,5.00,0.00,22.6,21.7,00.0,31.5,24.3,08.6,0000.0,0007.92,0003.31,0002.09
2022-03-19 13:55:00,,0827.1,5.00,0.00,22.6,21.7,00.0,31.5,24.3,08.6,0000.0,0007.51,0003.32,0002.09
2022-03-19 13:56:00,,0827.1,4.99,0.00,22.6,21.7,00.0,31.5,24.4,08.5,0000.0,0007.52,0003.31,0002.08
2022-03-19 13:57:00,,0827.1,5.00,0.00,22.6,21.7,00.0,31.5,24.4,08.5,0000.0,0007.70,0003.35,0002.08
2022-03-19 13:58:00,,0827.2,5.00,0.00,22.6,21.7,00.0,31.5,24.4,08.5,0000.0,0007.74,0003.36,0002.08
2022-03-19 13:59:00,,0827.1,5.00,0.00,22.6,21.7,00.0,31.5,24.3,08.5,0000.0,0007.58,0003.38,0002.09
